Snowfall_Accumulation
0.0 0.0 0.0 0.0 0.0 0.0 0.0 0.0 0.0 0.0 0.0 0.0 0.0 0.0 0.1 0.3 0.4 0.2 0.3 0.2 0.2 0.2
0.0 0.0 0.0 0.0 0.0 0.0 0.0 0.0 0.0 0.0 0.0 0.0 0.0 0.1 0.2 0.9 0.6 0.6 0.5 0.5 0.4 0.5
0.0 0.0 0.0 0.0 0.0 0.0 0.0 0.0 0.1 0.1 0.1 0.1 0.1 0.1 0.2 0.5 0.6 0.9 1.1 0.9 0.7 0.6
0.0 0.0 0.0 0.0 0.0 0.0 0.1 0.1 0.2 0.2 0.2 0.2 0.2 0.3 0.2 0.3 0.3 0.6 1.2 0.9 0.9 0.8
0.0 0.0 0.0 0.0 0.0 0.0 0.1 0.1 0.3 0.3 0.2 0.2 0.3 0.6 0.3 0.2 0.1 0.2 0.6 1.1 1.3 1.5
0.0 0.0 0.0 0.0 0.0 0.1 0.1 0.1 0.2 0.2 0.3 0.4 0.4 0.6 0.3 0.2 0.1 0.1 0.4 0.5 0.7 0.5
0.0 0.0 0.0 0.0 0.1 0.1 0.1 0.1 0.1 0.1 0.2 0.3 0.3 0.4 0.2 0.1 0.2 0.1 0.1 0.2 0.2 0.2
0.0 0.0 0.0 0.0 0.1 0.1 0.1 0.1 0.1 0.1 0.2 0.2 0.2 0.3 0.5 0.4 0.3 0.1 0.2 0.2 0.1 0.1
0.0 0.0 0.0 0.1 0.1 0.1 0.1 0.1 0.2 0.5 0.6 0.7 0.2 nan nan 0.0 0.1 0.1 0.1 0.0 0.0 0.0
0.0 0.0 0.1 0.1 0.1 0.1 0.1 0.1 0.3 0.3 0.3 0.5 0.5 nan nan nan 0.0 0.0 0.0 0.0 0.0 0.0
0.0 0.1 0.1 0.1 0.2 0.2 0.1 0.2 0.3 0.3 0.3 0.3 0.2 nan nan nan 0.0 0.0 0.0 0.0 0.0 0.0
0.1 0.1 0.1 0.2 0.1 0.1 0.2 0.2 0.2 0.1 0.0 0.0 0.0 nan nan 0.0 0.0 0.0 0.0 0.0 0.0 0.0
0.1 0.1 0.2 0.2 0.3 0.1 0.1 0.1 0.0 0.0 0.0 nan 0.0 nan nan nan 0.0 0.0 0.0 0.0 0.0 nan
0.1 0.1 0.1 0.1 0.0 0.0 0.0 0.0 0.0 0.0 0.0 0.0 0.0 0.0 nan nan 0.0 0.0 0.0 0.1 0.1 0.1
Water_Equivalent
0.00 0.00 0.00 0.00 0.00 0.00 0.00 0.00 0.00 0.00 0.00 0.00 0.00 0.00 0.02 0.05 0.09 0.04 0.07 0.05 0.05 0.06
0.00 0.00 0.00 0.00 0.00 0.00 0.00 0.00 0.00 0.00 0.00 0.00 0.00 0.02 0.03 0.19 0.11 0.12 0.09 0.09 0.08 0.10
0.00 0.00 0.00 0.00 0.00 0.00 0.00 0.00 0.02 0.02 0.02 0.02 0.02 0.03 0.04 0.10 0.10 0.17 0.21 0.16 0.12 0.11
0.00 0.00 0.00 0.00 0.00 0.01 0.02 0.03 0.04 0.03 0.04 0.04 0.04 0.05 0.04 0.05 0.06 0.10 0.21 0.16 0.16 0.13
0.00 0.00 0.00 0.00 0.00 0.01 0.02 0.03 0.06 0.06 0.05 0.04 0.05 0.11 0.06 0.04 0.03 0.04 0.12 0.19 0.22 0.28
0.00 0.00 0.00 0.01 0.01 0.02 0.02 0.03 0.03 0.04 0.06 0.08 0.08 0.11 0.06 0.04 0.02 0.03 0.09 0.13 0.14 0.10
0.00 0.00 0.00 0.01 0.02 0.03 0.03 0.02 0.02 0.02 0.04 0.06 0.07 0.08 0.04 0.02 0.03 0.02 0.03 0.04 0.06 0.07
0.00 0.00 0.00 0.01 0.01 0.02 0.01 0.02 0.02 0.02 0.05 0.04 0.06 0.06 0.09 0.07 0.06 0.02 0.04 0.04 0.02 0.02
0.00 0.00 0.01 0.02 0.02 0.02 0.02 0.02 0.06 0.11 0.13 0.15 0.04 nan nan 0.01 0.01 0.01 0.02 0.01 0.00 0.01
0.00 0.01 0.02 0.02 0.02 0.02 0.03 0.03 0.07 0.07 0.08 0.10 0.09 nan nan nan 0.00 0.00 0.00 0.00 0.00 0.00
0.01 0.02 0.02 0.03 0.04 0.04 0.03 0.05 0.06 0.06 0.07 0.06 0.03 nan nan nan 0.00 0.00 0.00 0.00 0.00 0.00
0.01 0.02 0.03 0.04 0.03 0.03 0.04 0.05 0.04 0.02 0.00 0.00 0.00 nan nan 0.00 0.00 0.00 0.00 0.00 0.00 0.00
0.02 0.04 0.05 0.07 0.08 0.03 0.02 0.01 0.01 0.00 0.00 nan 0.00 nan nan nan 0.00 0.00 0.00 0.00 0.00 nan
0.02 0.02 0.02 0.02 0.01 0.00 0.00 0.00 0.00 0.00 0.00 0.00 0.00 0.00 nan nan 0.00 0.00 0.01 0.02 0.03 0.02
SL_Ratio
nan nan nan nan nan nan nan nan nan nan nan nan nan 5.0 5.0 5.0 5.0 5.0 4.9 4.9 4.7 4.4
nan nan nan nan nan nan nan nan 3.3 0.0 nan nan 5.0 5.1 4.8 4.9 5.3 5.2 5.2 5.2 4.7 4.5
nan nan nan nan nan nan nan 5.0 4.6 4.3 4.7 4.9 5.2 5.4 5.3 5.2 5.3 5.5 5.5 5.5 5.4 5.1
nan nan nan nan nan 4.0 4.0 4.3 4.4 4.6 4.7 4.7 5.0 5.2 5.3 5.5 5.5 5.7 5.9 5.7 5.8 5.7
nan nan nan nan nan 4.7 4.8 4.5 4.7 4.7 4.7 4.8 5.1 5.3 5.4 5.5 5.4 5.5 5.6 5.7 5.9 5.3
nan nan nan 4.1 3.9 4.6 4.8 4.8 4.9 4.9 5.3 5.0 5.1 5.5 5.6 5.6 5.2 3.9 3.7 3.9 4.8 4.9
nan nan nan 4.8 4.6 4.3 4.1 4.7 5.6 5.3 5.4 5.0 5.0 5.3 5.6 5.8 5.8 5.2 4.3 3.7 3.6 3.7
nan nan 4.4 4.4 4.6 4.9 5.3 5.4 5.2 4.3 3.9 4.0 3.9 4.9 5.0 5.3 5.1 4.2 5.0 4.6 4.4 4.5
nan nan 4.7 4.1 3.9 4.8 3.8 3.8 4.0 4.4 4.7 4.5 4.1 nan nan 4.1 4.9 4.9 5.1 5.0 5.0 4.5
nan 3.9 4.3 4.6 4.3 4.2 4.3 4.0 4.3 4.5 4.2 4.6 4.9 nan nan nan nan 0.0 nan nan 0.0 5.6
3.9 4.1 4.1 3.8 3.9 4.4 4.5 4.6 4.5 4.5 4.6 5.1 5.2 nan nan nan nan nan nan nan nan nan
3.9 4.1 3.9 4.3 4.6 4.1 4.5 4.4 4.3 4.6 4.7 5.0 5.0 nan nan nan nan nan nan nan nan nan
3.7 3.7 4.0 3.7 3.9 4.4 3.7 4.1 3.1 nan nan nan nan nan nan nan nan nan nan nan nan nan
4.4 4.1 4.1 4.0 3.9 4.0 nan nan nan nan nan nan nan nan nan nan nan 6.7 2.7 2.8 3.0 3.3